This is the latest recevied weather packets stored in our database for station/object WC0AA. If no packets are shown the sender has not sent any weather packets the latest 10 day(s).
| Time | Temp. | Humidity | Pressure | Rain* | Wind** | Luminosity | Snow |
|---|---|---|---|---|---|---|---|
| 1777596004 | 13.33° C | 52% | 1017.6 hPa | 0 mm | - | - | - |
| 1777587605 | 16.67° C | 40% | 1017.2 hPa | 0 mm | - | - | - |
| 1777572604 | 18.89° C | 44% | 1017.6 hPa | 0 mm | - | - | - |
| 1777569605 | 20.56° C | 40% | 1018.1 hPa | 0 mm | - | - | - |
| 1777548004 | 6.11° C | 95% | 1018.2 hPa | 0 mm | - | - | - |
| 1777546805 | 6.67° C | 94% | 1018.1 hPa | 0 mm | - | - | - |
| 1777545005 | 6.67° C | 94% | 1018.3 hPa | 0 mm | - | - | - |
| 1777544405 | 6.67° C | 95% | 1018.4 hPa | 0 mm | - | - | - |
| 1777537804 | 7.22° C | 91% | 1017.9 hPa | 0 mm | - | - | - |
| 1777535405 | 8.33° C | 85% | 1018.1 hPa | 0 mm | - | - | - |
| 1777534205 | 8.89° C | 85% | 1018.5 hPa | 0 mm | - | - | - |
| 1777533604 | 8.33° C | 85% | 1018.8 hPa | 0 mm | - | - | - |
| 1777525204 | 7.22° C | 89% | 1018.8 hPa | 0 mm | - | - | - |
| 1777522205 | 7.22° C | 90% | 1019.1 hPa | 0 mm | - | - | - |
| 1777518005 | 8.89° C | 83% | 1018.7 hPa | 0 mm | - | - | - |
| 1777514404 | 11.11° C | 70% | 1018.3 hPa | 0 mm | - | - | - |
| 1777510204 | 15° C | 50% | 1017.8 hPa | 0 mm | - | - | - |
| 1777508404 | 15.56° C | 47% | 1017.9 hPa | 0 mm | - | - | - |
| 1777507204 | 15.56° C | 47% | 1017.9 hPa | 0 mm | - | - | - |
| 1777506604 | 16.11° C | 47% | 1017.9 hPa | 0 mm | - | - | - |
| 1777504804 | 16.67° C | 45% | 1017.9 hPa | 0 mm | - | - | - |
| 1777502404 | 18.33° C | 41% | 1017.9 hPa | 0 mm | - | - | - |
| 1777501204 | 18.33° C | 42% | 1017.9 hPa | 0 mm | - | - | - |
| 1777500604 | 17.78° C | 42% | 1017.9 hPa | 0 mm | - | - | - |
| 1777497004 | 17.22° C | 45% | 1018.5 hPa | 0 mm | - | - | - |
* Rain latest hour (hover to see other rain measurements)
** Current wind speed in m/s (hover to see current wind gust speed)